STARLINK-35383, 65793

Orbit data source: Space-Track

STARLINK-35383, 65793 is a payload satellite owned by SpaceX/Seattle (US) in SSO that was launched on Fri, 26 Sep 2025 UTC via an FALCON 9 launch vehicle from the Air Force Western Test Range (AFWTR). Payload-class satellites include a variety of spacecraft equipped with specific instruments for various scientific and technological missions. These include communications satellites like Starlink; space stations such as the ISS; scientific satellites like the Hubble; Earth observation satellites from companies like Planet Labs, Umbra, and HawkEye 360; GPS; miniature CubeSats for education and research; and military/defense satellites.

Loading next visibility...
Identifier
65793, 2025-218C
Orbit
SSO
Country
Flag of USUS
Related business
Manufacturer
SpaceX/Seattle
Mission
Operational Commercial Communications
Bus & Motor
STARLINK V2MO, Unknown motor
Mass
575 kg wet, ~530 kg dry
Launch date (UTC)
2025-09-26 (5 months ago)
Launch vehicle
FALCON 9
Launch site
Air Force Western Test Range (AFWTR)
Object type
Payload
Rocket body
Debris
Shape & HBR
Box + 2 Pan, 17.7 m
Radar Cross Section
36.964 m²

Expand to show TLE details & history
Last TLE update: 9 hours ago

TLE from 9 hours ago
0 STARLINK-35383
1 65793U 25218C   26062.58043529  .00008637  00000-0  60223-3 0  9990
2 65793  97.6014 286.9821 0002127  79.2673 280.8793 15.05639622 24058
Epoch: 2026-03-03T13:55Z
TLE epoch observation values (Epoch: 2026-03-03T13:55:49.609Z)
Latitude
-0.00001°
Longitude
-83.33206°
Altitude
552.33 km
Speed
7.586 km/s
True Right ascension
19h 07m 55s
True Declination
0° 00' 00"
Sunlit
Object was in daylight at epoch
Visualization orbit readout
Latitude
Unknown
Longitude
Unknown
Altitude
Unknown
Speed
Unknown
Apparent Right ascension
Unknown
Apparent Declination
Unknown
Sunlit
N/A
Visualization observer readout
Local Sidereal Time
02:42:41
Azimuth
Unknown
Elevation
Unknown
Doppler factor
Unknown
Orbital elements
Apogee altitude
548.009 km
Perigee altitude
545.064 km
Semi-major axis
6,924.673 km
Eccentricity
0.00021
Inclination
97.6014°
RAAN
286.9821°
Arg. of periapsis
79.2673°
True anomaly
280.85536°
Mean anomaly
280.8793°
Eccentric anomaly
280.86733°
Mean motion
3.76655 °/min
Orbital period
95.58 mins
BSTAR
0.00060223
Loading maneuver chart data...
Computing Atmospheric mass density...
Loading historical data...
Loading historical data...
Loading historical data...
Loading historical data...
Loading historical data...
Loading historical data...
Loading historical data...

Documentation

Showing up to 5 results
|